Location: ??????
(55.2000°N, 38.3000°E)
Time: 01:47:47
(UTC+00:00)

Cosmos 1464 Rocket - Pass Details

Date: 15 November 2025
Orbit: 950 x 1001 km, 82.9° (Epoch: 12 December)

Event Time Altitude Azimuth Distance (km) Brightness Sun altitude
Rises 02:49:38 0° 348° (NNW) 3,664 6.8 -18.2°
Reaches altitude 10° 02:52:09 10° 349° (N) 2,707 6.1 -17.8°
Maximum altitude 02:58:22 86° 78° (ENE) 965 4.0 -17.0°
Drops below altitude 10° 03:04:29 10° 169° (S) 2,672 6.6 -16.1°
Sets 03:06:57 0° 170° (S) 3,613 7.3 -15.7°
